Volver al catálogo

FENGYUN 1C DEB

ActivoSSO
NORAD 38116·DEBRIS·🇨🇳 China

Lanzado May 10, 1999 desde Taiyuan Satellite Launch Center

Loading…

Próximos Pases (próximas 24 horas)

TLE

ActualizadoSource: Space-Track

Época: Sep 14, 2026, 08:41 UTC

1 38116U 99025EPM 26257.36223590  .00000351  00000-0  18937-3 0  9996
2 38116  98.6863 295.2093 0072009  76.9100 349.6647 14.17487217683897

Sigue FENGYUN 1C DEB en tiempo real con AllMySat

Download on the App Store